Flag for South Africa Weather past 2 weeks in Rustenburg, South Africa

Now
50 °F

Cool.


Feels Like: 44 °F
Forecast: 52 / 58 °F
Wind: 16 mph from Southeast

Location: Lanseria Civ / Mil

Current Time: Sep 4, 2015 at 5:50:46 AM

Latest Report: Sep 4, 2015 at 5:00 AM


Visibility: N/A

Pressure: 30.48 "Hg (26.48 "Hg at 1166m altitude)

Humidity: 76%

Dew point: 43 °F

Location of RustenburgLocation

Historic Weather in Rustenburg — Graph

°F

Rustenburg temperature yesterday

Maximum temperature yesterday: 72 °F (at 2:00 PM)
Minimum temperature yesterday: 46 °F (at 6:00 AM)
Average temperature yesterday: 58 °F

Past Weeks' High & Low Weather Summary

 TemperatureHumidityPressure
High84 °F (Aug 22, 2:00 PM)100% (Aug 24, 5:00 AM)30.48 "Hg (Aug 24, 5:00 AM)
Low46 °F (Sep 2, 6:00 AM)10% (Aug 25, 4:00 PM)30.04 "Hg (Sep 1, 3:00 PM)
Average66 °F41%30.27 "Hg
* Reported Aug 20 4:00 AM — Sep 4 4:00 AM, Rustenburg, Weather by CustomWeather, © 2015

Note: Actual official high and low records may vary slightly from our data, if they occured in-between our weather recording intervals... More about our weather records

Advertising

Rustenburg weather history for previous 24 hours

 ConditionsComfort  
Time TempWeatherWind HumidityBarometerVisibility
4:00 AM
Fri, Sep 4
50 °FCool.20 mph82%30.45 "HgN/A
3:00 AM50 °FCool.13 mph88%30.48 "HgN/A
2:00 AM50 °FCool.15 mph88%30.48 "HgN/A
1:00 AM50 °FCool.18 mph88%30.48 "HgN/A
12:00 AM48 °FCool.18 mph100%30.48 "HgN/A
11:00 PM
Thu, Sep 3
48 °FCool.15 mph100%30.48 "HgN/A
10:00 PM50 °FThunderstorms. Passing clouds.14 mph100%30.48 "Hg4 mi
9:00 PM52 °FThunderstorms. Passing clouds.22 mph77%30.42 "Hg5 mi
8:00 PM52 °FThunderstorms. Passing clouds.18 mph82%30.39 "Hg4 mi
7:00 PM59 °FThunderstorms. Passing clouds.23 mph51%30.33 "Hg4 mi
6:00 PM64 °FPassing clouds.23 mph43%30.30 "Hg4 mi
5:00 PM72 °FPassing clouds.14 mph25%30.27 "HgN/A
4:00 PM70 °FScattered clouds.10 mph29%30.27 "HgN/A
3:00 PM72 °FScattered clouds.12 mph27%30.27 "HgN/A
2:00 PM72 °FScattered clouds.12 mph29%30.27 "HgN/A
1:00 PM68 °FScattered clouds.10 mph38%30.30 "HgN/A
12:00 PM66 °FScattered clouds.10 mph46%30.33 "HgN/A
11:00 AM64 °FSunny.16 mph52%30.36 "Hg10 mi
10:00 AM64 °FPassing clouds.12 mph56%30.36 "HgN/A
9:47 AM63 °FPassing clouds.13 mph59%30.36 "HgN/A
9:00 AM59 °FPassing clouds.10 mph59%30.36 "HgN/A
8:00 AM54 °FPassing clouds.6 mph54%30.36 "HgN/A
7:00 AM46 °FPassing clouds.5 mph34%30.33 "HgN/A
6:00 AM46 °FSunny.6 mph34%30.30 "Hg10 mi
5:00 AM50 °FCool.2 mph28%30.30 "HgN/A
Weather by CustomWeather, © 2015

See weather overviewHow to use our weather pages